utcTime,localTime,pm25,nowcast
2020-10-28 23:00:00 +0000,2020-10-28 16:00:00 -0700,9,NA
2020-10-29 00:00:00 +0000,2020-10-28 17:00:00 -0700,15,12.7
2020-10-29 01:00:00 +0000,2020-10-28 18:00:00 -0700,12,12.3
2020-10-29 02:00:00 +0000,2020-10-28 19:00:00 -0700,0,5.8
2020-10-29 03:00:00 +0000,2020-10-28 20:00:00 -0700,21,13.6
2020-10-29 04:00:00 +0000,2020-10-28 21:00:00 -0700,1,7.2
2020-10-29 05:00:00 +0000,2020-10-28 22:00:00 -0700,13,10.1
2020-10-29 06:00:00 +0000,2020-10-28 23:00:00 -0700,10,10
2020-10-29 07:00:00 +0000,2020-10-29 00:00:00 -0700,3,6.5
2020-10-29 08:00:00 +0000,2020-10-29 01:00:00 -0700,-0,3.2
2020-10-29 09:00:00 +0000,2020-10-29 02:00:00 -0700,13,8.1
2020-10-29 10:00:00 +0000,2020-10-29 03:00:00 -0700,3,5.5
2020-10-29 11:00:00 +0000,2020-10-29 04:00:00 -0700,7,6.2
2020-10-29 12:00:00 +0000,2020-10-29 05:00:00 -0700,8,7.1
2020-10-29 13:00:00 +0000,2020-10-29 06:00:00 -0700,15,11
2020-10-29 14:00:00 +0000,2020-10-29 07:00:00 -0700,9,10
2020-10-29 15:00:00 +0000,2020-10-29 08:00:00 -0700,27,18.5
2020-10-29 16:00:00 +0000,2020-10-29 09:00:00 -0700,2,10.2
2020-10-29 17:00:00 +0000,2020-10-29 10:00:00 -0700,18,14.1
2020-10-29 18:00:00 +0000,2020-10-29 11:00:00 -0700,6,10
2020-10-29 19:00:00 +0000,2020-10-29 12:00:00 -0700,17,13.5
2020-10-29 20:00:00 +0000,2020-10-29 13:00:00 -0700,25,19.2
2020-10-29 21:00:00 +0000,2020-10-29 14:00:00 -0700,9,14.1
2020-10-29 22:00:00 +0000,2020-10-29 15:00:00 -0700,23,18.5
2020-10-29 23:00:00 +0000,2020-10-29 16:00:00 -0700,16,17.2
2020-10-30 00:00:00 +0000,2020-10-29 17:00:00 -0700,9,13.1
2020-10-30 01:00:00 +0000,2020-10-29 18:00:00 -0700,15,14
2020-10-30 02:00:00 +0000,2020-10-29 19:00:00 -0700,5,9.5
2020-10-30 03:00:00 +0000,2020-10-29 20:00:00 -0700,19,14.2
2020-10-30 04:00:00 +0000,2020-10-29 21:00:00 -0700,26,20.1
2020-10-30 05:00:00 +0000,2020-10-29 22:00:00 -0700,17,18.5
2020-10-30 06:00:00 +0000,2020-10-29 23:00:00 -0700,25,21.7
2020-10-30 07:00:00 +0000,2020-10-30 00:00:00 -0700,25,23.3
2020-10-30 08:00:00 +0000,2020-10-30 01:00:00 -0700,0,11.6
2020-10-30 09:00:00 +0000,2020-10-30 02:00:00 -0700,18,14.8
2020-10-30 10:00:00 +0000,2020-10-30 03:00:00 -0700,17,15.9
2020-10-30 11:00:00 +0000,2020-10-30 04:00:00 -0700,17,16.4
2020-10-30 12:00:00 +0000,2020-10-30 05:00:00 -0700,18,17.2
2020-10-30 13:00:00 +0000,2020-10-30 06:00:00 -0700,11,14.1
2020-10-30 14:00:00 +0000,2020-10-30 07:00:00 -0700,16,15
2020-10-30 15:00:00 +0000,2020-10-30 08:00:00 -0700,26,20.5
2020-10-30 16:00:00 +0000,2020-10-30 09:00:00 -0700,11,15.7
2020-10-30 17:00:00 +0000,2020-10-30 10:00:00 -0700,10,12.8
2020-10-30 18:00:00 +0000,2020-10-30 11:00:00 -0700,20,16.4
2020-10-30 19:00:00 +0000,2020-10-30 12:00:00 -0700,9,12.7
2020-10-30 20:00:00 +0000,2020-10-30 13:00:00 -0700,18,15.3
2020-10-30 21:00:00 +0000,2020-10-30 14:00:00 -0700,13,14.1
2020-10-30 22:00:00 +0000,2020-10-30 15:00:00 -0700,26,20
2020-10-30 23:00:00 +0000,2020-10-30 16:00:00 -0700,15,17.5
2020-10-31 00:00:00 +0000,2020-10-30 17:00:00 -0700,12,14.7
2020-10-31 01:00:00 +0000,2020-10-30 18:00:00 -0700,12,13.3
2020-10-31 02:00:00 +0000,2020-10-30 19:00:00 -0700,0,6.6
2020-10-31 03:00:00 +0000,2020-10-30 20:00:00 -0700,10,8.3
2020-10-31 04:00:00 +0000,2020-10-30 21:00:00 -0700,-0,4.1
2020-10-31 05:00:00 +0000,2020-10-30 22:00:00 -0700,10,7
2020-10-31 06:00:00 +0000,2020-10-30 23:00:00 -0700,5,6
2020-10-31 07:00:00 +0000,2020-10-31 00:00:00 -0700,6,6
2020-10-31 08:00:00 +0000,2020-10-31 01:00:00 -0700,2,4
2020-10-31 09:00:00 +0000,2020-10-31 02:00:00 -0700,7,5.5
2020-10-31 10:00:00 +0000,2020-10-31 03:00:00 -0700,7,6.2
2020-10-31 11:00:00 +0000,2020-10-31 04:00:00 -0700,6,6.1
2020-10-31 12:00:00 +0000,2020-10-31 05:00:00 -0700,10,8
2020-10-31 13:00:00 +0000,2020-10-31 06:00:00 -0700,6,7
2020-10-31 14:00:00 +0000,2020-10-31 07:00:00 -0700,6,6.5
2020-10-31 15:00:00 +0000,2020-10-31 08:00:00 -0700,1,3.7
2020-10-31 16:00:00 +0000,2020-10-31 09:00:00 -0700,20,11.8
2020-10-31 17:00:00 +0000,2020-10-31 10:00:00 -0700,8,9.9
2020-10-31 18:00:00 +0000,2020-10-31 11:00:00 -0700,3,6.4
2020-10-31 19:00:00 +0000,2020-10-31 12:00:00 -0700,10,8.2
2020-10-31 20:00:00 +0000,2020-10-31 13:00:00 -0700,23,15.6
2020-10-31 21:00:00 +0000,2020-10-31 14:00:00 -0700,-0,7.8
2020-10-31 22:00:00 +0000,2020-10-31 15:00:00 -0700,24,15.9
2020-10-31 23:00:00 +0000,2020-10-31 16:00:00 -0700,12,13.9
2020-11-01 00:00:00 +0000,2020-10-31 17:00:00 -0700,12,12.9
2020-11-01 01:00:00 +0000,2020-10-31 18:00:00 -0700,0,6.4
2020-11-01 02:00:00 +0000,2020-10-31 19:00:00 -0700,14,10.2
2020-11-01 03:00:00 +0000,2020-10-31 20:00:00 -0700,12,11.1
2020-11-01 04:00:00 +0000,2020-10-31 21:00:00 -0700,11,11
2020-11-01 05:00:00 +0000,2020-10-31 22:00:00 -0700,7,9
2020-11-01 06:00:00 +0000,2020-10-31 23:00:00 -0700,11,10
2020-11-01 07:00:00 +0000,2020-11-01 00:00:00 -0700,14,12
2020-11-01 08:00:00 +0000,2020-11-01 01:00:00 -0700,3,7.5
2020-11-01 09:00:00 +0000,2020-11-01 01:00:00 -0800,8,7.7
2020-11-01 10:00:00 +0000,2020-11-01 02:00:00 -0800,6,6.8
2020-11-01 11:00:00 +0000,2020-11-01 03:00:00 -0800,12,9.4
2020-11-01 12:00:00 +0000,2020-11-01 04:00:00 -0800,5,7.2
2020-11-01 13:00:00 +0000,2020-11-01 05:00:00 -0800,14,10.6
2020-11-01 14:00:00 +0000,2020-11-01 06:00:00 -0800,11,10.8
2020-11-01 15:00:00 +0000,2020-11-01 07:00:00 -0800,18,14.4
2020-11-01 16:00:00 +0000,2020-11-01 08:00:00 -0800,3,8.7
2020-11-01 17:00:00 +0000,2020-11-01 09:00:00 -0800,11,9.8
2020-11-01 18:00:00 +0000,2020-11-01 10:00:00 -0800,4,6.9
2020-11-01 19:00:00 +0000,2020-11-01 11:00:00 -0800,10,8.4
2020-11-01 20:00:00 +0000,2020-11-01 12:00:00 -0800,19,13.7
2020-11-01 21:00:00 +0000,2020-11-01 13:00:00 -0800,7,10.3
2020-11-01 22:00:00 +0000,2020-11-01 14:00:00 -0800,17,13.6
2020-11-01 23:00:00 +0000,2020-11-01 15:00:00 -0800,20,16.8
2020-11-02 00:00:00 +0000,2020-11-01 16:00:00 -0800,5,10.9
2020-11-02 01:00:00 +0000,2020-11-01 17:00:00 -0800,2,6.4
2020-11-02 02:00:00 +0000,2020-11-01 18:00:00 -0800,15,10.7
2020-11-02 03:00:00 +0000,2020-11-01 19:00:00 -0800,15,12.8
2020-11-02 04:00:00 +0000,2020-11-01 20:00:00 -0800,14,13.4
2020-11-02 05:00:00 +0000,2020-11-01 21:00:00 -0800,12,12.7
2020-11-02 06:00:00 +0000,2020-11-01 22:00:00 -0800,4,8.3
2020-11-02 07:00:00 +0000,2020-11-01 23:00:00 -0800,17,12.6
2020-11-02 08:00:00 +0000,2020-11-02 00:00:00 -0800,0,6.3
2020-11-02 09:00:00 +0000,2020-11-02 01:00:00 -0800,9,7.6
2020-11-02 10:00:00 +0000,2020-11-02 02:00:00 -0800,12,9.8
2020-11-02 11:00:00 +0000,2020-11-02 03:00:00 -0800,8,8.9
2020-11-02 12:00:00 +0000,2020-11-02 04:00:00 -0800,12,10.4
2020-11-02 13:00:00 +0000,2020-11-02 05:00:00 -0800,6,8.2
2020-11-02 14:00:00 +0000,2020-11-02 06:00:00 -0800,4,6.1
2020-11-02 15:00:00 +0000,2020-11-02 07:00:00 -0800,11,8.5
2020-11-02 16:00:00 +0000,2020-11-02 08:00:00 -0800,18,13.2
2020-11-02 17:00:00 +0000,2020-11-02 09:00:00 -0800,2,7.6
2020-11-02 18:00:00 +0000,2020-11-02 10:00:00 -0800,8,7.8
2020-11-02 19:00:00 +0000,2020-11-02 11:00:00 -0800,10,8.9
2020-11-02 20:00:00 +0000,2020-11-02 12:00:00 -0800,13,10.9
2020-11-02 21:00:00 +0000,2020-11-02 13:00:00 -0800,7,8.9
2020-11-02 22:00:00 +0000,2020-11-02 14:00:00 -0800,10,9.4
2020-11-02 23:00:00 +0000,2020-11-02 15:00:00 -0800,14,11.7
2020-11-03 00:00:00 +0000,2020-11-02 16:00:00 -0800,9,10.3
2020-11-03 01:00:00 +0000,2020-11-02 17:00:00 -0800,2,6.1
2020-11-03 02:00:00 +0000,2020-11-02 18:00:00 -0800,0,3
2020-11-03 03:00:00 +0000,2020-11-02 19:00:00 -0800,3,3
2020-11-03 04:00:00 +0000,2020-11-02 20:00:00 -0800,5,4
2020-11-03 05:00:00 +0000,2020-11-02 21:00:00 -0800,-0,2
2020-11-03 06:00:00 +0000,2020-11-02 22:00:00 -0800,13,7.5
2020-11-03 07:00:00 +0000,2020-11-02 23:00:00 -0800,12,9.7
2020-11-03 08:00:00 +0000,2020-11-03 00:00:00 -0800,1,5.3
2020-11-03 09:00:00 +0000,2020-11-03 01:00:00 -0800,1,3.1
2020-11-03 10:00:00 +0000,2020-11-03 02:00:00 -0800,9,6
2020-11-03 11:00:00 +0000,2020-11-03 03:00:00 -0800,6,6
2020-11-03 12:00:00 +0000,2020-11-03 04:00:00 -0800,13,9.5
2020-11-03 13:00:00 +0000,2020-11-03 05:00:00 -0800,6,7.7
2020-11-03 14:00:00 +0000,2020-11-03 06:00:00 -0800,2,4.8
2020-11-03 15:00:00 +0000,2020-11-03 07:00:00 -0800,-0,2.4
2020-11-03 16:00:00 +0000,2020-11-03 08:00:00 -0800,10,6.2
2020-11-03 17:00:00 +0000,2020-11-03 09:00:00 -0800,8,7.1
2020-11-03 18:00:00 +0000,2020-11-03 10:00:00 -0800,1,4
2020-11-03 19:00:00 +0000,2020-11-03 11:00:00 -0800,11,7.5
2020-11-03 20:00:00 +0000,2020-11-03 12:00:00 -0800,5,6.2
2020-11-03 21:00:00 +0000,2020-11-03 13:00:00 -0800,6,6.1
2020-11-03 22:00:00 +0000,2020-11-03 14:00:00 -0800,10,8
2020-11-03 23:00:00 +0000,2020-11-03 15:00:00 -0800,7,7.5
2020-11-04 00:00:00 +0000,2020-11-03 16:00:00 -0800,0,3.7
2020-11-04 01:00:00 +0000,2020-11-03 17:00:00 -0800,0,1.8
2020-11-04 02:00:00 +0000,2020-11-03 18:00:00 -0800,8,4.9
2020-11-04 03:00:00 +0000,2020-11-03 19:00:00 -0800,0,2.4
2020-11-04 04:00:00 +0000,2020-11-03 20:00:00 -0800,8,5.2
2020-11-04 05:00:00 +0000,2020-11-03 21:00:00 -0800,1,3.1
2020-11-04 06:00:00 +0000,2020-11-03 22:00:00 -0800,6,4.5
2020-11-04 07:00:00 +0000,2020-11-03 23:00:00 -0800,0,2.2
2020-11-04 08:00:00 +0000,2020-11-04 00:00:00 -0800,7,4.6
2020-11-04 09:00:00 +0000,2020-11-04 01:00:00 -0800,0,2.3
2020-11-04 10:00:00 +0000,2020-11-04 02:00:00 -0800,8,5.1
2020-11-04 11:00:00 +0000,2020-11-04 03:00:00 -0800,0,2.5
2020-11-04 12:00:00 +0000,2020-11-04 04:00:00 -0800,4,3.2
2020-11-04 13:00:00 +0000,2020-11-04 05:00:00 -0800,30,16.6
2020-11-04 14:00:00 +0000,2020-11-04 06:00:00 -0800,2,9.3
2020-11-04 15:00:00 +0000,2020-11-04 07:00:00 -0800,9,9.1
2020-11-04 16:00:00 +0000,2020-11-04 08:00:00 -0800,0,4.5
2020-11-04 17:00:00 +0000,2020-11-04 09:00:00 -0800,-0,2.2
2020-11-04 18:00:00 +0000,2020-11-04 10:00:00 -0800,10,6.1
2020-11-04 19:00:00 +0000,2020-11-04 11:00:00 -0800,5,5.5
2020-11-04 20:00:00 +0000,2020-11-04 12:00:00 -0800,12,8.7
2020-11-04 21:00:00 +0000,2020-11-04 13:00:00 -0800,-0,4.3
2020-11-04 22:00:00 +0000,2020-11-04 14:00:00 -0800,10,7.1
2020-11-04 23:00:00 +0000,2020-11-04 15:00:00 -0800,0,3.5
2020-11-05 00:00:00 +0000,2020-11-04 16:00:00 -0800,0,1.7
2020-11-05 01:00:00 +0000,2020-11-04 17:00:00 -0800,8,4.8
2020-11-05 02:00:00 +0000,2020-11-04 18:00:00 -0800,0,2.4
2020-11-05 03:00:00 +0000,2020-11-04 19:00:00 -0800,1,1.7
2020-11-05 04:00:00 +0000,2020-11-04 20:00:00 -0800,4,2.8
2020-11-05 05:00:00 +0000,2020-11-04 21:00:00 -0800,NA,NA
2020-11-05 06:00:00 +0000,2020-11-04 22:00:00 -0800,NA,NA
2020-11-05 07:00:00 +0000,2020-11-04 23:00:00 -0800,NA,NA
2020-11-05 08:00:00 +0000,2020-11-05 00:00:00 -0800,NA,NA
2020-11-05 09:00:00 +0000,2020-11-05 01:00:00 -0800,NA,NA
2020-11-05 10:00:00 +0000,2020-11-05 02:00:00 -0800,NA,NA
2020-11-05 11:00:00 +0000,2020-11-05 03:00:00 -0800,NA,NA
2020-11-05 12:00:00 +0000,2020-11-05 04:00:00 -0800,NA,NA
2020-11-05 13:00:00 +0000,2020-11-05 05:00:00 -0800,NA,NA
2020-11-05 14:00:00 +0000,2020-11-05 06:00:00 -0800,NA,NA
2020-11-05 15:00:00 +0000,2020-11-05 07:00:00 -0800,NA,NA
2020-11-05 16:00:00 +0000,2020-11-05 08:00:00 -0800,0,NA
2020-11-05 17:00:00 +0000,2020-11-05 09:00:00 -0800,5,3.3
2020-11-05 18:00:00 +0000,2020-11-05 10:00:00 -0800,16,10.5
2020-11-05 19:00:00 +0000,2020-11-05 11:00:00 -0800,1,5.4
2020-11-05 20:00:00 +0000,2020-11-05 12:00:00 -0800,12,8.8
2020-11-05 21:00:00 +0000,2020-11-05 13:00:00 -0800,-0,4.3
2020-11-05 22:00:00 +0000,2020-11-05 14:00:00 -0800,18,11.2
2020-11-05 23:00:00 +0000,2020-11-05 15:00:00 -0800,0,5.5
2020-11-06 00:00:00 +0000,2020-11-05 16:00:00 -0800,1,3.2
2020-11-06 01:00:00 +0000,2020-11-05 17:00:00 -0800,0,1.6
2020-11-06 02:00:00 +0000,2020-11-05 18:00:00 -0800,-0,0.8
2020-11-06 03:00:00 +0000,2020-11-05 19:00:00 -0800,0,0.4
2020-11-06 04:00:00 +0000,2020-11-05 20:00:00 -0800,1,0.7
2020-11-06 05:00:00 +0000,2020-11-05 21:00:00 -0800,2,1.3
2020-11-06 06:00:00 +0000,2020-11-05 22:00:00 -0800,0,0.6
2020-11-06 07:00:00 +0000,2020-11-05 23:00:00 -0800,NA,NA
2020-11-06 08:00:00 +0000,2020-11-06 00:00:00 -0800,NA,NA
2020-11-06 09:00:00 +0000,2020-11-06 01:00:00 -0800,0,NA
2020-11-06 10:00:00 +0000,2020-11-06 02:00:00 -0800,1,0.6
2020-11-06 11:00:00 +0000,2020-11-06 03:00:00 -0800,NA,NA
2020-11-06 12:00:00 +0000,2020-11-06 04:00:00 -0800,2,1.6
2020-11-06 13:00:00 +0000,2020-11-06 05:00:00 -0800,0,0.6
2020-11-06 14:00:00 +0000,2020-11-06 06:00:00 -0800,0,0.3
2020-11-06 15:00:00 +0000,2020-11-06 07:00:00 -0800,1,0.6
2020-11-06 16:00:00 +0000,2020-11-06 08:00:00 -0800,0,0.3
2020-11-06 17:00:00 +0000,2020-11-06 09:00:00 -0800,0,0.1
2020-11-06 18:00:00 +0000,2020-11-06 10:00:00 -0800,6,3
2020-11-06 19:00:00 +0000,2020-11-06 11:00:00 -0800,0,1.5
2020-11-06 20:00:00 +0000,2020-11-06 12:00:00 -0800,16,8.7
2020-11-06 21:00:00 +0000,2020-11-06 13:00:00 -0800,0,4.3
2020-11-06 22:00:00 +0000,2020-11-06 14:00:00 -0800,0,2.1
2020-11-06 23:00:00 +0000,2020-11-06 15:00:00 -0800,-0,1
2020-11-07 00:00:00 +0000,2020-11-06 16:00:00 -0800,0,0.5
2020-11-07 01:00:00 +0000,2020-11-06 17:00:00 -0800,0,0.2
2020-11-07 02:00:00 +0000,2020-11-06 18:00:00 -0800,0,0.1
2020-11-07 03:00:00 +0000,2020-11-06 19:00:00 -0800,NA,NA
2020-11-07 04:00:00 +0000,2020-11-06 20:00:00 -0800,NA,NA
2020-11-07 05:00:00 +0000,2020-11-06 21:00:00 -0800,NA,NA
2020-11-07 06:00:00 +0000,2020-11-06 22:00:00 -0800,NA,NA
2020-11-07 07:00:00 +0000,2020-11-06 23:00:00 -0800,NA,NA
2020-11-07 08:00:00 +0000,2020-11-07 00:00:00 -0800,-0,NA
2020-11-07 09:00:00 +0000,2020-11-07 01:00:00 -0800,0,0
2020-11-07 10:00:00 +0000,2020-11-07 02:00:00 -0800,0,0
2020-11-07 11:00:00 +0000,2020-11-07 03:00:00 -0800,1,0.5
2020-11-07 12:00:00 +0000,2020-11-07 04:00:00 -0800,0,0.2
2020-11-07 13:00:00 +0000,2020-11-07 05:00:00 -0800,8,4.1
2020-11-07 14:00:00 +0000,2020-11-07 06:00:00 -0800,0,2
2020-11-07 15:00:00 +0000,2020-11-07 07:00:00 -0800,0,1
2020-11-07 16:00:00 +0000,2020-11-07 08:00:00 -0800,0,0.5
2020-11-07 17:00:00 +0000,2020-11-07 09:00:00 -0800,0,0.2
2020-11-07 18:00:00 +0000,2020-11-07 10:00:00 -0800,0,0.1
2020-11-07 19:00:00 +0000,2020-11-07 11:00:00 -0800,21,10.5
2020-11-07 20:00:00 +0000,2020-11-07 12:00:00 -0800,0,5.2
2020-11-07 21:00:00 +0000,2020-11-07 13:00:00 -0800,14,9.6
2020-11-07 22:00:00 +0000,2020-11-07 14:00:00 -0800,0,4.8
2020-11-07 23:00:00 +0000,2020-11-07 15:00:00 -0800,0,2.4
2020-11-08 00:00:00 +0000,2020-11-07 16:00:00 -0800,0,1.2
2020-11-08 01:00:00 +0000,2020-11-07 17:00:00 -0800,-0,0.6
2020-11-08 02:00:00 +0000,2020-11-07 18:00:00 -0800,5,2.8
2020-11-08 03:00:00 +0000,2020-11-07 19:00:00 -0800,-0,1.4
2020-11-08 04:00:00 +0000,2020-11-07 20:00:00 -0800,1,1.2
2020-11-08 05:00:00 +0000,2020-11-07 21:00:00 -0800,NA,NA
